Miscellaneous Local Product
Issued by NWS Hastings, NE

Home | Current Version | Previous Version | Text Only | Print | Product List | Glossary Off
Versions: 1 2 3 4 5 6 7 8 9 10 11 12 13 14 15 16 17 18 19 20 21 22 23 24 25 26 27 28 29 30 31 32 33 34 35 36 37 38 39 40 41 42 43 44 45 46 47 48 49 50

017
AXUS43 KGID 032302
MISGRI

GID CWA HOURLY WEATHER ROUNDUP
NATIONAL WEATHER SERVICE HASTINGS NE
500 PM CST SAT DEC 03 2016

NOTE: "FAIR" INDICATES FEW OR NO CLOUDS BELOW 12,000 FEET WITH NO
SIGNIFICANT WEATHER AND/OR OBSTRUCTIONS TO VISIBILITY.

...SOUTH CENTRAL NEBRASKA...

CITY           SKY/WX    TMP DP  RH WIND       PRES   REMARKS
GRAND ISLAND   LGT SNOW  32  32 100 SE6       30.08F FOG     WCI  26
HASTINGS       LGT SNOW  32  32 100 SE7       30.08F FOG     WCI  26
KEARNEY        CLOUDY    34  28  80 S7        30.06F WCI  28
ORD            CLOUDY    36  30  79 S9        30.03S WCI  29
YORK           LGT SNOW  32  32 100 SE7       30.10F WCI  26
AURORA         LGT SNOW  32  32 100 SE5       30.09F WCI  27
LEXINGTON      CLOUDY    34  31  90 S15       30.03F WCI  24
HOLDREGE       CLOUDY    32  31  97 S5        30.05F WCI  28
HEBRON         LGT SNOW  32  32  99 E6        30.09F WCI  27

...NEBRASKA PANHANDLE...

CITY           SKY/WX    TMP DP  RH WIND       PRES   REMARKS
CHADRON        MOCLDY    36  15  42 NW6       29.95R WCI  31
ALLIANCE       CLOUDY    40  14  34 NW14      29.94R WCI  32
SCOTTSBLUFF    MOCLDY    40  12  32 W21G28    29.96R WCI  30
SIDNEY         PTCLDY    37  13  37 NW14      29.96R WCI  28

...WESTERN AND NORTH CENTRAL NEBRASKA...

CITY           SKY/WX    TMP DP  RH WIND       PRES   REMARKS
VALENTINE      CLEAR     38  16  40 W17       29.91R WCI  28
AINSWORTH      CLEAR     42  16  35 SW9       29.91S
ONEILL         CLOUDY    37  32  82 S12G21    30.00F WCI  29
BROKEN BOW     CLOUDY    36  31  82 S14G26    30.00R WCI  27
IMPERIAL       PTCLDY    41  26  55 S8        29.96S
NORTH PLATTE   CLEAR     39  29  67 S12       29.96F WCI  32
MCCOOK         CLOUDY    37  31  78 S9        30.02R WCI  30

...EASTERN NEBRASKA...

CITY           SKY/WX    TMP DP  RH WIND       PRES   REMARKS
NORFOLK        CLOUDY    33  31  92 SE10      30.09F WCI  25
SO SIOUX CITY  LGT SNOW  34  32  92 SE12      30.15F VSB 1   WCI  25
TEKAMAH        LGT SNOW  33  31  92 SE8       30.17F FOG     WCI  26
COLUMBUS       CLOUDY    34  30  86 SE10      30.11F WCI  26
ALBION         CLOUDY    34  32  93 S9        30.08R WCI  26
OMAHA EPPLEY   LGT SNOW  33  29  85 SE6       30.17F VSB 3/4 WCI  28
MILLARD        LGT SNOW  33  32  95 CALM      30.15F
LINCOLN        LGT SNOW  33  32  96 SE5       30.14F VSB 1   WCI  29
NEBRASKA CITY  LGT RAIN  32  32  99 NE6       30.14F WCI  27
BEATRICE       LGT SNOW  33  33  99 E5        30.12F WCI  29
FALLS CITY     CLOUDY    39  33  79 E7        30.13F WCI  34

...NORTHERN KANSAS...

CITY           SKY/WX    TMP DP  RH WIND       PRES   REMARKS
GOODLAND       CLEAR     37  27  67 S7        29.97S WCI  32
HILL CITY      LGT SNOW  33  32  96 SE5       30.06F FOG     WCI  29
NORTON         CLOUDY    34  30  86 SE6       30.04S WCI  29
PHILLIPSBURG   LGT SNOW  34  34 100 E3        30.08F
SMITH CENTER   LGT SNOW  30  30 100 CALM      30.09S
BELOIT         CLOUDY    32  32 100 CALM      30.08F
HAYS           MIX PCPN  33  32  96 NE3       30.06F FOG
RUSSELL        MIX PCPN  35  35 100 SE3       30.05F FOG
CONCORDIA      LGT RAIN  35  35 100 SE9       30.09F FOG     WCI  28
SALINA         LGT RAIN  39  38  96 CALM      30.11S FOG
TOPEKA         CLOUDY    47  31  53 E3        30.14S



USA.gov is the U.S. government's official web portal to all federal, state and local government web resources and services.